| time (UTC) | temp F | wind direction | speed knots | gust knots | rain 1hr in | rain 24hr in | rain mn in | humidity % | barometer mb |
| 20260503223002 | 70 | 234 | 6.1 | 15.6 | 0.00 | 0.00 | 0.00 | 28 | 1004.0 |
| 20260503221606 | 71 | 236 | 4.3 | 13.9 | 0.00 | 0.00 | 0.00 | 27 | 1003.9 |
| 20260503220105 | 71 | 304 | 7.8 | 12.2 | 0.00 | 0.00 | 0.00 | 31 | 1003.8 |
| 20260503214559 | 71 | 234 | 6.1 | 13.9 | 0.00 | 0.00 | 0.00 | 34 | 1003.7 |
| 20260503213057 | 70 | 269 | 6.1 | 16.5 | 0.00 | 0.00 | 0.00 | 33 | 1003.7 |
| 20260503211557 | 71 | 244 | 4.3 | 11.3 | 0.00 | 0.00 | 0.00 | 35 | 1003.7 |
| 20260503210059 | 71 | 248 | 5.2 | 14.8 | 0.00 | 0.00 | 0.00 | 34 | 1003.7 |
| 20260503204607 | 71 | 240 | 7.0 | 13.0 | 0.00 | 0.00 | 0.00 | 35 | 1003.9 |
| 20260503203100 | 71 | 220 | 4.3 | 13.0 | 0.00 | 0.00 | 0.00 | 37 | 1004.0 |
| 20260503201553 | 71 | 259 | 4.3 | 13.9 | 0.00 | 0.00 | 0.00 | 35 | 1004.3 |
| 20260503200051 | 71 | 309 | 5.2 | 13.0 | 0.00 | 0.00 | 0.00 | 36 | 1004.3 |
| 20260503194605 | 70 | 267 | 4.3 | 13.9 | 0.00 | 0.00 | 0.00 | 37 | 1004.4 |
| 20260503193046 | 69 | 283 | 3.5 | 10.4 | 0.00 | 0.00 | 0.00 | 40 | 1004.5 |
| 20260503191544 | 69 | 244 | 5.2 | 14.8 | 0.00 | 0.00 | 0.00 | 41 | 1004.5 |
| 20260503190057 | 69 | 273 | 5.2 | 13.0 | 0.00 | 0.00 | 0.00 | 40 | 1004.6 |
| 20260503184540 | 69 | 326 | 3.5 | 18.2 | 0.00 | 0.00 | 0.00 | 41 | 1004.9 |
| 20260503183037 | 68 | 232 | 4.3 | 10.4 | 0.00 | 0.00 | 0.00 | 43 | 1004.9 |
| 20260503181535 | 67 | 297 | 4.3 | 8.7 | 0.00 | 0.00 | 0.00 | 44 | 1005.2 |
| 20260503180032 | 67 | 5 | 2.6 | 8.7 | 0.00 | 0.00 | 0.00 | 45 | 1005.2 |
| 20260503174528 | 66 | 252 | 2.6 | 9.6 | 0.00 | 0.00 | 0.00 | 45 | 1005.3 |
| 20260503173034 | 65 | 244 | 2.6 | 7.0 | 0.00 | 0.00 | 0.00 | 46 | 1005.4 |
| 20260503171522 | 64 | 230 | 2.6 | 9.6 | 0.00 | 0.00 | 0.00 | 47 | 1005.5 |
| 20260503081555 | 53 | 163 | 0.0 | 1.7 | 0.00 | 0.00 | 0.00 | 57 | 1008.0 |
| 20260503071542 | 54 | 161 | 0.9 | 2.6 | 0.00 | 0.00 | 0.00 | 58 | 1008.6 |
| 20260503054533 | 57 | 252 | 0.9 | 5.2 | 0.00 | 0.00 | 0.00 | 57 | 1010.4 |
| 20260503053020 | 58 | 225 | 0.9 | 2.6 | 0.00 | 0.00 | 0.00 | 51 | 1010.3 |
| 20260503051518 | 58 | 225 | 1.7 | 2.6 | 0.00 | 0.00 | 0.00 | 51 | 1010.2 |
| 20260503050017 | 58 | 225 | 0.9 | 3.5 | 0.00 | 0.00 | 0.00 | 50 | 1010.3 |
| 20260503044532 | 58 | 224 | 1.7 | 3.5 | 0.00 | 0.00 | 0.00 | 50 | 1010.4 |
| 20260503043014 | 57 | 201 | 0.9 | 2.6 | 0.00 | 0.00 | 0.00 | 49 | 1010.5 |
| 20260503041512 | 57 | 202 | 0.9 | 1.7 | 0.00 | 0.00 | 0.00 | 49 | 1010.8 |
| 20260503040010 | 57 | 203 | 0.9 | 2.6 | 0.00 | 0.00 | 0.00 | 48 | 1010.9 |
| 20260503034508 | 57 | 207 | 1.7 | 2.6 | 0.00 | 0.00 | 0.00 | 48 | 1011.3 |
| 20260503033005 | 57 | 209 | 0.9 | 1.7 | 0.00 | 0.00 | 0.00 | 49 | 1011.5 |
| 20260503031503 | 56 | 209 | 0.0 | 2.6 | 0.00 | 0.00 | 0.00 | 49 | 1011.8 |
| 20260503030004 | 56 | 211 | 0.9 | 2.6 | 0.00 | 0.00 | 0.00 | 49 | 1011.9 |
| 20260503024502 | 57 | 215 | 0.9 | 1.7 | 0.00 | 0.00 | 0.00 | 48 | 1012.0 |
| 20260503023001 | 57 | 215 | 0.9 | 2.6 | 0.00 | 0.00 | 0.00 | 47 | 1012.0 |
| 20260503021605 | 57 | 219 | 0.0 | 0.0 | 0.00 | 0.00 | 0.00 | 47 | 1012.0 |
| 20260503020105 | 58 | 219 | 0.0 | 0.0 | 0.00 | 0.00 | 0.00 | 45 | 1012.0 |
| 20260503014600 | 58 | 219 | 0.0 | 2.6 | 0.00 | 0.00 | 0.00 | 45 | 1012.0 |
| 20260503013103 | 58 | 221 | 0.9 | 1.7 | 0.00 | 0.00 | 0.00 | 44 | 1012.1 |
| 20260503011607 | 59 | 221 | 0.0 | 0.9 | 0.00 | 0.00 | 0.00 | 43 | 1012.2 |
| 20260503010100 | 59 | 222 | 0.9 | 3.5 | 0.00 | 0.00 | 0.00 | 42 | 1012.3 |
| 20260503004556 | 59 | 225 | 0.0 | 1.7 | 0.00 | 0.00 | 0.00 | 41 | 1012.3 |
| 20260503003054 | 60 | 227 | 0.9 | 3.5 | 0.00 | 0.00 | 0.00 | 41 | 1012.5 |
| 20260503001554 | 60 | 229 | 0.0 | 2.6 | 0.00 | 0.00 | 0.00 | 41 | 1012.7 |
| 20260503000107 | 60 | 229 | 0.9 | 6.1 | 0.00 | 0.00 | 0.00 | 40 | 1012.8 |
| 20260502234550 | 61 | 234 | 3.5 | 6.1 | 0.00 | 0.00 | 0.00 | 39 | 1012.9 |
| 20260502233048 | 60 | 230 | 2.6 | 6.1 | 0.00 | 0.00 | 0.00 | 40 | 1013.2 |
| 20260502231612 | 61 | 233 | 3.5 | 6.1 | 0.00 | 0.00 | 0.00 | 39 | 1013.4 |
| 20260502230046 | 61 | 257 | 5.2 | 10.4 | 0.00 | 0.00 | 0.00 | 39 | 1013.6 |
| 20260502224555 | 61 | 253 | 5.2 | 11.3 | 0.00 | 0.00 | 0.00 | 39 | 1013.7 |